Starlink 11385

operational
NORAD ID: 62014 Int'l Des: 2024-213 Owner: SPXS Country: US Constellation: starlink
LEOCIRCULAR

Über Starlink 11385

Beschreibung wird geladen...

Live-Position

3D-Globus wird geladen...

Nächste Überflüge

Höhenverlauf

Altitude vs Time

uPlot chart will show altitude changes over time

Zweizeiliger Elementsatz

1 62014U 24213G 25260.19562309 .00139617 00000-0 11353-2 0 9997
2 62014 53.1568 176.6980 0000724 98.2406 261.8694 15.69767068 47666
Epoch: 17. Sept. 2025 • Age: 20 hours

Aktueller Status

Höhe 364.6 km
Geschwindigkeit 7.70 km/s
Subsatellitenpunkt 51.55°N, 89.36°W
Startdatum 18. Nov. 2024
Alter 0.8 years
Typ internet

Technische Details

Klassifizierung Payload
Masse 960.00 kg
Trockenmasse 910.00 kg
Gesamtmasse 960.00 kg
Länge 0.30 m
Durchmesser 4.10 m
Spannweite 29.00 m
Form Box + pan
Hersteller SPXS
Bus-Typ Starlink V2MD
Phasenstatus In Orbit
Besitzer/Staat SPXS/US

Große Konstellationen

Loading constellations...